EZY815 EGKK-EGPH

Flight info

Callsign EZY815
Flight time N/A
Altitude 38000
Route LAM L10 BPK UN601 RIBEL DCT INPIP
Aircraft A319/M-SDE3FGHIRWY/LB1

Departure

Time N/A
Airport London Gatwick Airport (EGKK)

Arrival

Time 2026-05-05 22:55
Airport Edinburgh Airport (EGPH)
Time Latitude Longitude Altitude Speed Heading
2026-05-05 22:48 55.76447 -3.74704 6094 ft 320 kts 318°
2026-05-05 22:48 55.78108 -3.77223 5726 ft 307 kts 326°
2026-05-05 22:49 55.80037 -3.78528 5401 ft 294 kts 356°
2026-05-05 22:49 55.81986 -3.77874 4982 ft 285 kts 29°
2026-05-05 22:49 55.83378 -3.75507 4647 ft 275 kts 58°
2026-05-05 22:49 55.84209 -3.72486 4289 ft 268 kts 68°
2026-05-05 22:50 55.84874 -3.69438 3938 ft 261 kts 69°
2026-05-05 22:50 55.85508 -3.66513 3601 ft 245 kts 69°
2026-05-05 22:50 55.86093 -3.63851 3351 ft 215 kts 67°
2026-05-05 22:50 55.86726 -3.61609 3166 ft 193 kts 62°
2026-05-05 22:51 55.87368 -3.59661 2963 ft 173 kts 60°
2026-05-05 22:51 55.87972 -3.57884 2706 ft 162 kts 60°
2026-05-05 22:51 55.88541 -3.56213 2489 ft 154 kts 61°
2026-05-05 22:51 55.89085 -3.54620 2282 ft 146 kts 61°
2026-05-05 22:52 55.89595 -3.53128 2083 ft 136 kts 62°
2026-05-05 22:52 55.90076 -3.51718 1898 ft 130 kts 62°
2026-05-05 22:52 55.90524 -3.50407 1722 ft 121 kts 62°
2026-05-05 22:52 55.90956 -3.49138 1545 ft 119 kts 61°
2026-05-05 22:53 55.91385 -3.47880 1383 ft 119 kts 61°
2026-05-05 22:53 55.91814 -3.46620 1207 ft 120 kts 61°
2026-05-05 22:53 55.92248 -3.45345 1033 ft 121 kts 61°
2026-05-05 22:53 55.92683 -3.44065 850 ft 121 kts 60°
2026-05-05 22:54 55.93124 -3.42770 687 ft 123 kts 60°
2026-05-05 22:54 55.93562 -3.41470 526 ft 122 kts 60°
2026-05-05 22:54 55.94010 -3.40183 349 ft 122 kts 61°
2026-05-05 22:54 55.94443 -3.38893 187 ft 122 kts 60°
2026-05-05 22:55 55.94836 -3.37735 115 ft 98 kts 59°
2026-05-05 22:55 55.95083 -3.36999 114 ft 52 kts 58°
2026-05-05 22:55 55.95225 -3.36580 112 ft 26 kts 59°
2026-05-05 22:55 55.95222 -3.36387 114 ft 17 kts 140°
2026-05-05 22:56 55.95132 -3.36236 115 ft 14 kts 106°
2026-05-05 22:56 55.95104 -3.36063 116 ft 14 kts 105°
2026-05-05 22:56 55.95067 -3.36020 116 ft 6 kts 220°
2026-05-05 22:56 55.95036 -3.36090 114 ft 5 kts 233°
2026-05-05 22:57 55.95034 -3.36096 114 ft 0 kts 233°
2026-05-05 22:58 55.95034 -3.36095 114 ft 0 kts 233°
2026-05-05 22:59 55.95034 -3.36096 114 ft 0 kts 233°